Wind_Speed
12 12 10 10 11 10 11 12 12 12 13 13 15 17 21 21 22 22 25 23 21 20 19 19 18 20 20 20 19 18 20 19 20 18 14 11 13 12 13 16 24 26 28
13 13 12 11 11 10 10 10 11 12 14 14 19 21 21 21 20 19 18 21 23 22 20 19 19 19 18 19 19 21 21 19 17 19 18 14 15 16 16 15 13 19 26
13 12 12 11 10 9 9 9 11 12 16 22 24 23 22 22 21 20 19 18 16 22 21 22 23 22 21 19 18 19 21 21 20 19 19 17 17 17 19 20 20 13 15
11 11 11 11 9 8 8 9 11 14 19 21 24 23 23 22 21 21 20 19 18 16 17 19 23 23 23 23 21 19 19 21 21 20 20 19 19 17 18 19 19 21 20
11 11 11 10 8 8 9 10 11 15 20 24 24 23 22 21 21 20 21 20 18 18 17 17 18 23 23 25 24 24 21 20 21 21 21 21 20 20 19 19 19 18 19
11 11 10 9 8 9 10 10 12 19 24 27 28 26 23 22 21 22 21 20 19 17 19 17 17 18 21 23 25 24 24 23 24 22 21 20 21 22 21 21 21 19 17
12 11 10 9 8 8 10 10 15 24 27 29 25 25 23 20 21 21 21 21 23 20 21 20 19 18 20 20 24 25 25 24 24 25 24 25 24 24 24 22 22 21 19
11 11 10 9 8 9 10 11 15 22 17 16 6 8 3 6 18 17 20 23 25 24 21 24 19 19 20 21 21 25 25 25 25 26 27 26 26 25 25 24 24 24 24
12 11 11 9 9 8 9 9 11 14 11 6 12 4 3 3 5 7 11 17 22 23 21 18 20 19 20 20 22 23 25 25 26 25 25 27 27 27 27 27 27 24 25
13 12 11 9 9 8 9 9 8 11 13 14 10 5 4 8 3 3 6 9 12 18 20 20 16 15 16 16 20 20 23 24 25 26 26 26 26 27 28 28 28 29 27
13 12 11 11 11 10 10 9 10 10 12 11 7 9 11 11 7 4 3 3 8 11 16 18 17 15 16 13 15 18 20 22 24 25 25 26 27 27 28 28 30 30 30
15 13 13 12 12 12 11 11 11 10 10 11 11 8 7 4 4 5 4 3 6 4 10 16 17 15 13 14 15 14 17 19 21 23 25 27 27 28 28 29 29 31 31
18 16 15 14 14 13 12 12 13 13 12 14 13 15 15 15 12 12 13 3 3 3 2 9 14 16 12 11 15 12 14 17 19 21 23 25 26 27 28 28 29 29 31
20 17 16 15 15 15 14 13 14 15 15 16 17 17 18 15 12 10 7 8 2 2 3 9 6 17 13 12 13 11 14 15 16 19 22 24 26 26 27 27 28 28 29
20 19 17 17 17 17 15 13 15 16 15 17 17 17 16 14 12 11 9 5 4 2 2 5 8 14 12 10 12 10 13 16 16 18 20 22 24 26 27 27 28 29 30
22 21 19 19 19 18 16 14 15 16 15 15 13 13 13 11 12 10 9 9 7 4 3 6 10 12 11 9 10 8 9 15 14 17 18 20 22 24 26 27 28 28 30
22 21 21 21 20 20 18 16 16 15 16 16 14 13 13 10 11 10 9 8 8 7 7 3 8 7 9 9 9 9 8 13 13 16 16 18 21 22 25 26 27 28 29
22 22 22 22 21 20 18 16 17 15 16 15 14 12 12 10 10 10 9 10 9 7 4 3 7 8 11 10 9 11 12 10 12 15 16 15 18 21 22 25 26 27 28
24 22 22 22 21 20 18 16 15 16 15 15 14 14 15 14 15 12 11 11 10 10 7 7 7 9 12 14 12 10 7 15 17 12 16 13 14 18 22 23 25 26 26
23 21 19 19 20 19 17 17 18 20 21 20 19 18 18 16 16 15 14 12 11 13 12 13 14 16 14 16 13 18 13 6 14 21 13 14 11 17 20 22 25 26 26
22 21 20 18 18 19 21 23 24 26 26 24 20 19 18 18 17 15 15 15 13 15 14 14 16 15 18 17 18 17 15 9 4 23 11 16 12 15 22 25 24 25 26
24 22 22 21 20 21 25 26 26 25 23 20 19 18 16 14 14 15 16 16 15 14 14 14 13 13 14 16 15 16 19 10 6 17 9 17 10 14 17 23 22 23 25
26 23 23 24 23 23 25 24 24 22 20 18 17 16 16 13 12 14 14 13 11 10 9 8 10 10 11 13 13 14 14 11 2 16 14 12 10 10 17 17 21 22 23
25 24 24 24 26 25 24 22 21 20 18 14 13 13 13 13 14 12 11 9 8 7 5 4 8 9 8 10 10 9 9 10 3 4 16 7 21 10 10 17 20 24 23
26 24 26 27 27 24 22 21 22 20 19 14 13 13 11 11 16 12 8 8 8 9 12 10 7 6 6 7 9 10 11 11 4 4 15 7 15 14 3 16 19 23 24
26 28 29 26 25 22 20 22 24 25 21 16 13 11 10 11 14 12 9 9 9 8 6 3 2 4 5 6 8 9 9 9 8 3 9 10 13 15 6 9 16 20 24
Wind_Direction
155 152 140 130 119 114 106 104 101 93 89 94 95 102 103 98 95 92 75 67 66 59 50 43 38 38 33 28 20 10 13 12 10 8 3 355 356 334 353 297 263 252 252
161 157 146 132 119 111 108 106 100 90 96 99 108 110 104 99 95 89 85 76 63 61 55 47 39 35 28 24 23 21 20 12 1 4 3 350 322 339 320 327 322 266 253
158 157 148 135 121 118 113 105 100 95 105 112 112 107 101 95 90 85 79 74 73 63 53 49 46 40 34 26 17 13 10 12 10 6 1 350 351 334 313 332 300 310 260
161 155 146 130 116 121 121 117 106 109 112 117 116 105 98 92 84 77 71 65 62 60 60 48 46 41 36 31 27 17 12 11 10 8 6 3 358 345 339 330 333 310 297
154 156 143 125 116 127 126 114 114 123 120 119 112 104 96 88 80 74 68 65 62 59 56 51 47 42 37 34 32 27 22 16 12 9 9 7 2 356 350 343 344 332 325
154 155 140 129 130 137 126 116 110 127 126 121 109 97 87 81 76 71 69 65 60 57 52 51 47 43 38 37 32 29 28 25 23 20 15 10 5 360 354 350 347 351 344
151 154 149 140 134 135 135 120 117 133 131 126 108 88 83 81 73 70 68 64 58 57 52 50 47 42 42 37 34 32 31 28 24 22 21 19 13 9 4 356 354 352 347
156 158 157 143 131 134 137 139 144 141 137 153 132 126 150 75 66 71 70 65 62 56 55 49 52 48 51 47 33 31 30 28 24 24 22 22 18 14 11 3 0 358 353
163 161 156 150 139 136 140 155 170 162 151 146 173 165 120 159 136 71 75 67 65 61 60 51 52 51 52 45 38 30 27 27 25 21 19 18 17 15 15 12 10 2 0
160 157 154 147 142 139 140 147 156 176 169 148 112 91 144 140 152 142 93 90 68 64 58 53 53 49 44 43 34 30 26 25 22 22 19 17 15 14 15 13 11 10 7
156 153 153 149 145 144 137 135 130 141 166 177 168 133 103 98 117 136 142 130 101 69 59 51 46 46 43 42 32 27 24 21 22 22 19 16 15 14 15 13 13 12 12
156 157 157 153 146 141 137 129 119 118 124 139 148 153 162 150 138 120 106 149 142 108 56 42 38 33 41 43 36 25 23 23 24 24 21 19 17 15 13 14 14 15 13
161 160 161 157 153 147 139 131 125 120 122 121 114 105 103 98 108 117 117 122 150 133 28 38 30 27 29 34 35 22 28 24 22 23 24 20 20 19 17 15 15 15 15
163 161 163 160 155 152 145 142 138 125 118 112 110 108 103 99 101 115 125 142 104 115 77 19 357 15 23 29 27 32 31 17 22 21 22 20 20 20 20 18 16 16 16
164 163 165 161 158 157 154 150 143 139 132 125 116 111 107 103 102 99 106 130 132 135 59 16 14 4 21 29 31 41 32 30 32 23 23 22 21 21 21 20 18 17 16
168 166 164 163 161 163 160 156 145 141 142 137 125 127 117 113 109 109 95 81 92 111 121 39 16 9 19 34 36 34 45 34 41 26 24 24 23 23 23 22 21 19 18
170 168 167 165 164 163 162 158 150 146 140 135 131 131 126 126 116 103 97 85 81 93 108 55 17 26 29 38 40 38 37 33 46 27 25 25 24 23 23 23 22 22 21
172 171 169 169 168 166 165 164 155 154 151 145 140 141 139 139 126 118 107 86 81 84 109 111 24 40 39 35 36 37 44 51 45 34 28 25 24 24 23 22 22 23 23
174 174 174 173 170 171 169 168 162 156 153 146 138 134 129 131 121 120 111 100 84 81 91 108 66 53 41 31 33 37 62 62 41 17 25 26 25 23 23 23 23 22 22
175 176 178 179 176 172 166 163 157 148 139 132 125 117 115 115 114 114 108 98 92 89 91 91 73 55 41 29 34 25 26 8 15 24 28 32 45 40 32 27 24 21 21
180 178 174 173 170 169 160 153 146 141 137 131 123 114 107 102 103 102 104 99 96 95 94 86 74 61 44 37 30 20 11 8 17 12 29 30 45 41 43 35 23 21 20
176 179 171 170 164 167 156 155 151 148 147 143 136 127 125 118 109 101 99 98 89 88 85 80 74 59 44 34 30 25 20 10 357 7 24 29 43 41 37 32 19 18 18
175 180 171 171 167 165 156 160 157 156 154 150 147 146 142 141 135 123 113 106 95 87 76 71 73 54 36 21 11 16 19 10 16 12 5 16 21 41 35 30 19 17 16
180 173 174 174 170 163 158 164 164 159 156 154 155 157 147 155 167 155 133 119 111 95 64 106 84 65 39 10 10 6 5 356 330 3 14 7 6 6 35 27 22 18 17
175 177 178 176 176 168 171 179 181 175 167 159 156 156 154 150 173 171 153 136 127 106 96 102 83 49 41 35 14 4 23 15 352 338 13 10 7 2 1 25 12 11 16
175 174 176 185 184 174 179 185 190 180 168 161 155 155 164 164 163 178 172 157 138 136 166 154 60 26 29 23 14 20 16 15 353 329 0 1 9 13 338 354 3 5 11
Height
799 801 802 803 803 803 802 803 805 806 808 809 810 810 810 811 811 812 813 814 814 814 815 814 814 812 811 810 809 807 804 802 801 798 796 794 794 792 791 792 792 793 795
799 800 802 802 802 804 804 804 805 807 809 811 811 812 813 813 814 814 814 815 816 816 816 816 815 814 813 812 810 808 806 804 802 799 797 795 793 792 790 789 788 788 789
799 800 801 801 802 803 804 804 806 809 810 812 813 814 815 816 816 817 816 817 816 817 818 817 816 815 814 813 812 809 808 805 803 799 797 795 793 791 790 788 786 784 783
800 800 802 802 803 804 804 805 807 809 811 813 814 816 817 818 819 819 819 818 819 818 818 817 817 817 816 814 812 811 809 806 803 800 798 795 793 791 789 787 784 780 780
799 801 802 803 804 805 807 807 809 810 812 814 817 819 820 820 821 821 820 820 821 820 819 819 818 819 818 816 814 812 810 808 804 801 799 797 793 790 788 786 783 781 777
799 801 802 803 806 807 807 808 808 810 813 815 819 821 824 825 824 823 823 824 824 823 821 820 819 820 820 819 817 814 812 809 806 803 801 797 794 791 787 784 781 779 777
797 800 802 804 805 805 806 808 808 811 815 817 816 825 828 829 828 827 827 827 826 825 824 822 822 822 822 821 819 816 813 812 809 805 801 799 795 791 788 784 781 778 776
798 799 802 803 804 805 806 808 810 812 814 815 816 821 831 834 832 832 831 831 829 829 828 827 827 827 825 822 821 819 816 814 811 808 804 800 797 792 788 785 780 776 774
798 800 801 803 804 805 807 809 810 811 812 814 815 817 825 829 833 836 835 834 833 832 833 832 831 829 828 826 823 821 818 815 813 810 807 801 799 795 789 785 781 777 773
799 800 802 803 805 806 808 809 809 810 810 812 815 816 816 818 826 836 837 836 835 835 835 835 833 831 830 828 827 823 821 818 815 811 808 805 801 796 791 787 783 777 773
798 800 802 804 806 808 809 809 809 809 811 812 814 817 817 818 819 822 833 836 837 837 837 836 835 832 830 829 827 826 823 821 816 814 810 806 803 798 793 789 784 778 773
797 800 803 805 807 808 810 810 809 810 812 813 815 815 815 816 818 819 828 834 836 839 838 836 835 834 833 831 829 827 826 823 820 817 813 809 804 800 795 791 786 780 776
796 800 803 805 807 809 810 811 812 813 814 814 814 814 816 816 817 819 822 831 834 838 838 837 837 836 834 832 829 828 827 825 822 819 815 812 808 803 798 793 788 785 780
793 798 802 805 808 810 811 813 814 815 816 816 816 817 817 820 821 822 825 829 835 835 838 840 838 836 834 832 831 829 828 825 823 820 817 813 809 805 802 798 794 789 785
793 797 802 804 808 810 812 814 815 816 817 818 818 819 821 822 824 825 827 830 830 835 839 840 838 837 835 833 832 830 828 825 824 822 819 816 812 808 804 800 796 790 785
792 796 800 804 807 811 813 815 817 818 818 819 819 821 823 826 827 828 830 830 831 833 839 840 839 838 836 835 833 830 828 827 825 823 821 818 815 811 807 803 798 794 789
792 795 800 804 808 811 813 815 817 818 819 820 821 823 825 828 829 829 830 831 833 834 836 841 841 839 837 835 833 831 829 827 826 825 823 821 818 814 810 806 802 797 793
792 796 799 804 808 811 813 814 816 819 820 822 823 825 827 828 828 830 831 833 835 834 836 840 840 839 837 835 834 832 830 828 827 826 823 822 820 817 813 809 805 801 797
794 797 800 803 807 810 812 814 816 818 821 824 825 826 827 828 829 831 833 835 835 836 837 839 842 840 838 836 834 832 831 829 828 826 824 822 821 819 816 812 808 804 800
795 799 802 804 807 809 810 813 816 819 822 826 828 829 829 830 831 833 834 836 837 838 839 842 843 842 840 839 836 833 831 830 829 827 826 824 822 820 817 814 810 806 802
795 798 801 805 807 810 810 813 817 820 824 828 830 831 832 833 835 835 836 837 839 840 843 845 844 844 843 840 837 836 833 830 830 829 827 824 823 821 818 815 813 809 806
793 797 797 802 807 811 811 815 818 822 826 829 831 832 834 836 837 838 838 839 841 843 845 846 845 845 844 842 840 837 834 832 832 832 829 827 825 822 820 818 816 812 808
788 795 796 800 806 812 811 818 821 824 828 830 831 832 833 836 839 840 841 842 843 845 846 847 846 845 844 843 841 838 837 836 835 833 830 827 825 824 822 820 817 814 810
787 791 797 802 807 811 813 820 824 826 829 831 832 833 833 836 839 840 840 842 844 846 847 847 847 846 846 844 841 839 838 836 834 834 831 829 826 823 822 820 818 815 812
785 789 796 804 808 810 814 820 824 827 829 831 833 834 834 836 839 840 841 842 844 846 848 848 848 847 846 844 842 840 838 836 834 834 833 830 829 824 822 821 819 816 813
782 789 796 805 809 811 815 818 823 826 829 831 833 835 836 837 840 840 840 841 842 845 848 848 848 847 846 844 842 840 839 838 837 835 834 833 830 827 824 822 821 817 814